Location: Arpaise
(41.0333°N, 14.7333°E)
Time: 16:54:16
(UTC+00:00)

Cosmos 2322 - Pass Details

Date: 05 July 2020
Orbit: 841 x 854 km, 71.0° (Epoch: 10 August)

Event Time Altitude Azimuth Distance (km) Brightness Sun altitude
Rises 20:15:57 0° 202° (SSW) 3,406 6.6 -15.1°
Reaches altitude 10° 20:18:23 10° 203° (SSW) 2,475 5.9 -15.4°
Maximum altitude 20:24:05 88° 292° (WNW) 860 3.7 -16.1°
Drops below altitude 10° 20:29:50 10° 23° (NNE) 2,491 6.5 -16.7°
Sets 20:32:17 0° 24° (NNE) 3,430 7.3 -17.0°
